Location: Stuttgart
(48.8069°N, 9.1544°E)
Time: 21:38:01
(UTC+01:00)

ISS - Pass Details

Date: 13 November 2017
Orbit: 401 x 407 km, 51.6° (Epoch: 25 November)

Event Time Altitude Azimuth Distance (km) Brightness Sun altitude
Exits shadow 06:35:36 13° 279° (W) 1,304 -1.9 -9.0°
Maximum altitude 06:38:15 38° 213° (SSW) 636 -3.0 -8.6°
Drops below altitude 10° 06:41:17 10° 143° (SE) 1,450 -0.1 -8.1°
Sets 06:43:26 0° 135° (SE) 2,306 1.3 -7.8°
